Weather in Kattakurgan

Uzbekistan     39°54′12″N   66°15′54″E
temp.,
°C
wind,
m/s
gust,
m/s
humid.,
%
clouds,
%
prec.,
mm/h
press.,
hPa
HPBL,
m
21 april, wed
wed2123:00+17wnw484523 0.1 1013270
02:00+14nnw22630 0.0 101415
05:00+13nw23717 0.0 101532
08:00+15wnw33600 0.0 1017412
11:00+19wnw44410 0.0 10171598
14:00+21nnw44270 0.0 10172059
17:00+19n76260 0.0 1017929
20:00+13ne47380 0.0 1020191
22 april, thu
thu2223:00+11ene46440 0.0 1021167
02:00+9ene58560 0.0 1022228
05:00+7ene46620 0.0 1023155
08:00+11ene69500 0.0 1023452
11:00+18e78290 0.0 10221108
14:00+22e78200 0.0 10221406
17:00+20e89240 0.0 1022913
20:00+15e813360 0.0 1023360
23 april, fri
fri2323:00+12ene613410 0.0 1023294
02:00+10ene49485 0.0 1022163
05:00+9ene47555 0.0 1022117
08:00+14e584248 0.0 1022296
11:00+22ese452346 0.0 1021952
14:00+26e55155 0.0 10191678
17:00+25e76185 0.0 10171614
20:00+18e5123525 0.0 1018246
24 april, sat
sat2423:00+15ene4935100 0.0 1018132
02:00+14e34385 0.0 101750
05:00+13e2341100 0.0 101719
08:00+17ese2334100 0.0 1018151
11:00+23ese0121100 0.0 1018713
14:00+26w2214100 0.0 10171324
17:00+26nw121455 0.0 10161382
20:00+20se112411 0.0 101711
25 april, sun
sun2523:00+17e34345 0.0 101848
02:00+16e33405 0.0 101829
05:00+15e333970 0.0 101822
08:00+20e353134 0.0 1018210
11:00+27e441849 0.0 10171038
14:00+30ene231589 0.0 10152175
17:00+29ene6517100 0.0 10151363
20:00+22ene5112776 0.0 1016222